TimeCET,TemperatureF,Dew PointF,Humidity,Sea Level PressureIn,VisibilityMPH,Wind Direction,Wind SpeedMPH,Gust SpeedMPH,PrecipitationIn,Events,Conditions,WindDirDegrees,DateUTC
12:15 AM,37.4,37.4,100,30.27,3.7,NE,3.5,-,N/A,,Scattered Clouds,50,2013-12-18 23:15:00
12:45 AM,37.4,37.4,100,30.27,4.3,NE,2.3,-,N/A,,Scattered Clouds,50,2013-12-18 23:45:00
1:00 AM,37,37,100,30.30,4,NE,2.3,,,,Mist,50,2013-12-19 00:00:00
1:15 AM,37.4,37.4,100,30.27,4.3,NNE,2.3,-,N/A,,Scattered Clouds,30,2013-12-19 00:15:00
1:45 AM,37.4,37.4,100,30.27,4.3,North,3.5,-,N/A,,Scattered Clouds,10,2013-12-19 00:45:00
2:15 AM,35.6,35.6,100,30.27,4.3,North,2.3,-,N/A,,Scattered Clouds,360,2013-12-19 01:15:00
2:45 AM,35.6,35.6,100,30.27,4.3,ENE,2.3,-,N/A,,Scattered Clouds,60,2013-12-19 01:45:00
3:15 AM,35.6,35.6,100,30.27,4.3,ENE,2.3,-,N/A,,Scattered Clouds,60,2013-12-19 02:15:00
3:45 AM,33.8,33.8,100,30.27,4.3,ENE,2.3,-,N/A,,Partly Cloudy,60,2013-12-19 02:45:00
4:00 AM,34,34,100,30.31,4,ENE,2.3,,,,Mist,60,2013-12-19 03:00:00
4:15 AM,33.8,33.8,100,30.27,4.3,Calm,Calm,-,N/A,,Partly Cloudy,0,2013-12-19 03:15:00
4:45 AM,33.8,33.8,100,30.27,4.3,Calm,Calm,-,N/A,,Partly Cloudy,0,2013-12-19 03:45:00
5:15 AM,33.8,33.8,100,30.24,4.3,North,4.6,-,N/A,,Clear,350,2013-12-19 04:15:00
5:45 AM,33.8,33.8,100,30.24,4.3,North,4.6,-,N/A,,Clear,360,2013-12-19 04:45:00
6:15 AM,32.0,32.0,100,30.24,4.3,NE,2.3,-,N/A,,Partly Cloudy,50,2013-12-19 05:15:00
6:45 AM,32.0,32.0,100,30.24,4.3,North,3.5,-,N/A,,Partly Cloudy,360,2013-12-19 05:45:00
7:00 AM,33,33,98,30.29,4,NE,2.3,,,,Mist,50,2013-12-19 06:00:00
7:15 AM,33.8,33.8,100,30.24,4.3,NE,3.5,-,N/A,,Partly Cloudy,50,2013-12-19 06:15:00
7:45 AM,33.8,33.8,100,30.24,3.7,NE,3.5,-,N/A,,Partly Cloudy,40,2013-12-19 06:45:00
8:15 AM,33.8,33.8,100,30.24,3.7,ENE,3.5,-,N/A,,Partly Cloudy,70,2013-12-19 07:15:00
8:45 AM,33.8,33.8,100,30.24,3.7,North,2.3,-,N/A,,Partly Cloudy,10,2013-12-19 07:45:00
9:15 AM,33.8,33.8,100,30.24,3.7,NNE,2.3,-,N/A,,Partly Cloudy,20,2013-12-19 08:15:00
9:45 AM,37.4,37.4,100,30.24,3.7,NE,2.3,-,N/A,,Partly Cloudy,40,2013-12-19 08:45:00
10:00 AM,37,37,98,30.29,4,NE,2.3,,,,Mist,40,2013-12-19 09:00:00
10:15 AM,41.0,39.2,93,30.24,4.3,North,2.3,-,N/A,,Scattered Clouds,360,2013-12-19 09:15:00
10:45 AM,42.8,39.2,87,30.27,4.3,NNE,3.5,-,N/A,,Scattered Clouds,20,2013-12-19 09:45:00
11:15 AM,46.4,41.0,81,30.27,4.3,NNE,2.3,-,N/A,,Scattered Clouds,30,2013-12-19 10:15:00
11:45 AM,48.2,42.8,82,30.24,4.3,ENE,1.2,-,N/A,,Scattered Clouds,60,2013-12-19 10:45:00
12:15 PM,48.2,42.8,82,30.24,5.0,North,2.3,-,N/A,,Scattered Clouds,350,2013-12-19 11:15:00
12:45 PM,51.8,46.4,82,30.21,6.2,Calm,Calm,-,N/A,,Scattered Clouds,0,2013-12-19 11:45:00
1:00 PM,52,46,74,30.23,6,Calm,Calm,,,,Partly Cloudy,,2013-12-19 12:00:00
1:15 PM,55.4,48.2,77,30.18,6.2,SSE,6.9,-,N/A,,Scattered Clouds,150,2013-12-19 12:15:00
1:45 PM,55.4,50.0,82,30.18,6.2,SSE,9.2,-,N/A,,Scattered Clouds,150,2013-12-19 12:45:00
2:15 PM,55.4,48.2,77,30.18,6.2,SE,9.2,-,N/A,,Scattered Clouds,140,2013-12-19 13:15:00
2:45 PM,55.4,44.6,67,30.18,6.2,South,9.2,-,N/A,,Scattered Clouds,170,2013-12-19 13:45:00
3:15 PM,55.4,44.6,67,30.18,6.2,South,4.6,-,N/A,,Scattered Clouds,190,2013-12-19 14:15:00
3:45 PM,53.6,42.8,67,30.18,6.2,South,4.6,-,N/A,,Scattered Clouds,170,2013-12-19 14:45:00
4:00 PM,54,44,58,30.19,9,South,4.6,,,,Mostly Cloudy,170,2013-12-19 15:00:00
4:15 PM,53.6,44.6,72,30.15,6.2,SE,5.8,-,N/A,,Scattered Clouds,130,2013-12-19 15:15:00
4:45 PM,51.8,44.6,76,30.15,6.2,ESE,3.5,-,N/A,,Scattered Clouds,120,2013-12-19 15:45:00
5:15 PM,51.8,44.6,76,30.15,6.2,SE,5.8,-,N/A,,Scattered Clouds,130,2013-12-19 16:15:00
5:45 PM,51.8,44.6,76,30.15,6.2,ESE,8.1,-,N/A,,Scattered Clouds,120,2013-12-19 16:45:00
6:15 PM,51.8,42.8,71,30.15,6.2,ESE,6.9,-,N/A,,Scattered Clouds,120,2013-12-19 17:15:00
6:45 PM,51.8,42.8,71,30.15,6.2,ESE,3.5,-,N/A,,Scattered Clouds,110,2013-12-19 17:45:00
7:00 PM,52,43,63,30.18,7,ESE,3.5,,,,Partly Cloudy,110,2013-12-19 18:00:00
7:15 PM,50.0,42.8,76,30.15,6.2,ESE,5.8,-,N/A,,Scattered Clouds,110,2013-12-19 18:15:00
7:45 PM,48.2,41.0,76,30.15,6.2,East,5.8,-,N/A,,Scattered Clouds,100,2013-12-19 18:45:00
8:15 PM,48.2,42.8,82,30.15,6.2,ESE,5.8,-,N/A,,Scattered Clouds,110,2013-12-19 19:15:00
8:45 PM,51.8,46.4,82,30.15,6.2,SE,9.2,-,N/A,,Scattered Clouds,140,2013-12-19 19:45:00
9:15 PM,53.6,46.4,77,30.15,6.2,SE,10.4,-,N/A,,Scattered Clouds,140,2013-12-19 20:15:00
9:45 PM,51.8,44.6,76,30.15,6.2,SSE,11.5,-,N/A,,Scattered Clouds,150,2013-12-19 20:45:00
10:00 PM,53,45,67,30.17,7,SSE,11.5,,,,Partly Cloudy,150,2013-12-19 21:00:00
10:15 PM,53.6,46.4,77,30.15,6.2,SE,15.0,-,N/A,,Scattered Clouds,130,2013-12-19 21:15:00
10:45 PM,53.6,46.4,77,30.15,6.2,SSE,11.5,-,N/A,,Scattered Clouds,150,2013-12-19 21:45:00
11:15 PM,53.6,46.4,77,30.15,6.2,SE,11.5,-,N/A,,Scattered Clouds,140,2013-12-19 22:15:00
11:45 PM,53.6,46.4,77,30.15,6.2,SE,9.2,-,N/A,,Scattered Clouds,130,2013-12-19 22:45:00